Weather in Badalona

Spain     41°26′58″N   2°14′43″E
temp.,
°C
wind,
m/s
gust,
m/s
humid.,
%
clouds,
%
prec.,
mm/h
press.,
hPa
HPBL,
m
11 may, tue
tue1123:00+16sw35695 0.0 1009392
02:00+16wsw227014 0.4 100960
05:00+15wnw24712 0.0 1008118
08:00+14wnw485891 0.0 1009453
11:00+18wnw45430 0.0 10111082
14:00+21w66289 0.1 10112179
17:00+20e764099 0.1 10121770
20:00+16ese344694 0.2 1016787
12 may, wed
wed1223:00+14sse23619 0.0 1019380
02:00+14ssw136748 0.0 1018361
05:00+14nnw1169100 0.0 101669
08:00+14wnw23656 0.0 1016314
11:00+19wsw473212 0.0 10141161
14:00+22wsw6113315 0.0 10122047
17:00+22w1013301 0.0 10102025
20:00+21w46345 0.0 10111758
13 may, thu
thu1323:00+16e3554100 0.0 1014277
02:00+15se2462100 0.0 1014346
05:00+15ssw257033 0.0 1014577
08:00+15sse467292 0.3 1014770
11:00+17nne226492 0.8 1013868
14:00+20s144097 0.9 10121870
17:00+23sw473393 0.0 10092439
20:00+18wsw101256100 0.1 10101018
14 may, fri
fri1423:00+15wsw257599 2.3 1010660
02:00+14nw36761 2.5 1009588
05:00+13n1178100 0.0 1009148
08:00+14sw1174100 0.0 1010272
11:00+15ssw0169100 0.2 1011475
14:00+17sse336096 0.8 1012990
17:00+13e81083100 1.3 1012743
20:00+12nnw12756 18.1 1015447
15 may, sat
sat1523:00+12w23770 0.0 1017124
02:00+12w2480100 0.0 1017198
05:00+11nnw2378100 0.0 101793
08:00+11nw1166100 0.0 1018143
11:00+16wsw114081 0.0 1019729
14:00+19sse3435100 0.0 10181297
17:00+18sse454196 0.0 1018684
20:00+18s3458100 0.0 1019565